星链-11284 (STARLINK-11284)

导读 | 豆包AI

STARLINK-11284是美国于2024年9月13日发射的星链卫星,隶属于SpaceX公司的星链星座项目。星链项目旨在构建全球卫星互联网星座,为全球提供高速低延迟宽带网络服务。该卫星入轨后,将进一步扩充星链星座规模,提升星座的全球覆盖能力与服务稳定性。

Basic Information
目录编号:
61052
目录名称:
STARLINK-11284
国际标识:
2024-164C
轨道中心:
EARTH
卫星名称:
星链-11284
卫星全名:
星链-11284 (STARLINK-11284)
卫星状态:
已陨落 最后检测时间 2025-10-08
发射日期:
2024-09-13 UTC
国别 :
美国 (US)
星等 :
--
Orbit Information
数据来源 国际轨道数据
星历时间: 2025-10-09T04:57:03+0800
轨道信息已过期228天
半长轴: 6566.984km
偏心率: 0.0005165
轨道倾角: 53.136°
近地点辐角 342.294°
升交点赤经 338.239°
平近点角 17.792°
近地点: 185.457km
远地点: 192.241km
周期: 88.269分钟
每日圈数: 16.313752
Detailed Information
固有亮度:
5
最大亮度:
2.5
卫星平台:
Starlink V1.0
覆盖范围:
全球
运营商:
太空探索技术公司
运营商所在国:
美国
制造商(研发单位):
太空探索技术公司
制造商所在国:
美国
使用方式:
暂无
Satellite Introduction
Starlink 计划是 SpaceX 推出的全球卫星互联网项目,通过发射低轨道卫星,为全球尤其是偏远地区提供高速、低延迟的互联网服务。自 2019 年起,Starlink 已部署数千颗卫星,旨在缩小全球数字鸿沟,推动互联网普及。该项目还为军事、航空等行业提供通信支持,带来广泛经济效益。